Starlink 5199

operational
NORAD ID: 54201 Int'l Des: 2022-141 Owner: SPXS Country: US Constellation: starlink
LEOCIRCULAR

Starlink 5199について

説明を読み込み中...

リアルタイム位置

3D地球を読み込み中...

次回通過

高度履歴

Altitude vs Time

uPlot chart will show altitude changes over time

軌道要素

1 54201U 22141AW 25341.19064491 .00003733 00000-0 25246-3 0 9999
2 54201 53.2141 49.3620 0000968 80.6947 279.4154 15.08844347172030
Epoch: Dec 7, 2025 • Age: 19 hours

現在のステータス

高度 545.0 km
速度 7.59 km/s
衛星直下点 -18.66°S, 38.96°W
打ち上げ日 Oct 28, 2022
運用期間 3.1 years
タイプ internet

技術仕様

分類 Payload
質量 305.00 kg
乾燥質量 290.00 kg
総質量 305.00 kg
長さ 0.20 m
直径 2.80 m
スパン 9.00 m
形状 Box + pan
製造者 SPXS
バスタイプ Starlink
フェーズステータス In Orbit
所有者/国 SPXS/US

大規模コンステレーション

Loading constellations...